Location: Newark
(35.7219°N, 0.3536°E)
Time: 22:25:36
(UTC+00:00)

ISS - Pass Details

Date: 30 July 2019
Orbit: 410 x 420 km, 51.6° (Epoch: 20 August)

Event Time Altitude Azimuth Distance (km) Brightness Sun altitude
Rises 20:39:32 0° 327° (NNW) 2,370 1.5 -17.2°
Reaches altitude 10° 20:43:47 10° 18° (NNE) 1,499 -0.7 -17.9°
Maximum altitude 20:43:56 10° 21° (NNE) 1,497 -0.7 -17.9°
Drops below altitude 10° 20:44:06 10° 23° (NNE) 1,499 -0.8 -17.9°
Enters shadow 20:45:46 - 50° (NE) 1,679 -0.8 -18.2°
